PRIVATE WETTERSTATION BILLIGHEIM-ALLFELD                       ZURCK
Wetterdaten: Donnerstag, 20.11.2014
Datum Zeit Temp. A. Temp. A. min Temp. A. max Feuchte A. Luftdruck Regen Wind Richtung Richtung Sonnenschein ET Solar Taupunkt Windchill Windben Empfang
20.11.2014 00:00 5,4 C 5,4 C 5,4 C 91 % 1025,0 hPa 0,0 l/m 0,0 km/h (0 Bft) N 0 0 min 0,000 mm 0 W/m 4,1 C 5,4 C 0,0 km/h (0 Bft) 100 %
20.11.2014 00:10 5,4 C 5,4 C 5,4 C 91 % 1024,9 hPa 0,0 l/m 0,0 km/h (0 Bft) N 0 0 min 0,000 mm 0 W/m 4,1 C 5,4 C 0,0 km/h (0 Bft) 100 %
20.11.2014 00:20 5,4 C 5,4 C 5,5 C 91 % 1024,9 hPa 0,0 l/m 0,0 km/h (0 Bft) N 0 0 min 0,000 mm 0 W/m 4,1 C 5,4 C 0,0 km/h (0 Bft) 100 %
20.11.2014 00:30 5,5 C 5,4 C 5,5 C 91 % 1024,9 hPa 0,0 l/m 0,0 km/h (0 Bft) W-SW 247 0 min 0,000 mm 0 W/m 4,2 C 5,5 C 3,2 km/h (1 Bft) 100 %
20.11.2014 00:40 5,4 C 5,4 C 5,5 C 91 % 1024,9 hPa 0,0 l/m 0,0 km/h (0 Bft) W-SW 247 0 min 0,000 mm 0 W/m 4,1 C 5,4 C 1,6 km/h (1 Bft) 100 %
20.11.2014 00:50 5,2 C 5,2 C 5,4 C 91 % 1024,9 hPa 0,0 l/m 0,0 km/h (0 Bft) N 0 0 min 0,000 mm 0 W/m 3,9 C 5,2 C 0,0 km/h (0 Bft) 100 %
20.11.2014 01:00 5,1 C 5,1 C 5,2 C 91 % 1025,0 hPa 0,0 l/m 0,0 km/h (0 Bft) N 0 0 min 0,000 mm 0 W/m 3,8 C 5,1 C 0,0 km/h (0 Bft) 100 %
20.11.2014 01:10 5,1 C 5,1 C 5,1 C 91 % 1025,0 hPa 0,0 l/m 0,0 km/h (0 Bft) W-SW 247 0 min 0,000 mm 0 W/m 3,8 C 5,1 C 1,6 km/h (1 Bft) 100 %
20.11.2014 01:20 5,1 C 5,1 C 5,1 C 91 % 1024,9 hPa 0,0 l/m 0,0 km/h (0 Bft) W-SW 247 0 min 0,000 mm 0 W/m 3,8 C 5,1 C 1,6 km/h (1 Bft) 99 %
20.11.2014 01:30 5,2 C 5,1 C 5,2 C 91 % 1025,0 hPa 0,0 l/m 0,0 km/h (0 Bft) W-SW 247 0 min 0,000 mm 0 W/m 3,9 C 5,2 C 1,6 km/h (1 Bft) 100 %
20.11.2014 01:40 5,2 C 5,2 C 5,2 C 91 % 1025,0 hPa 0,0 l/m 0,0 km/h (0 Bft) N 0 0 min 0,000 mm 0 W/m 3,9 C 5,2 C 0,0 km/h (0 Bft) 100 %
20.11.2014 01:50 5,1 C 5,1 C 5,2 C 91 % 1024,9 hPa 0,0 l/m 0,0 km/h (0 Bft) W-SW 247 0 min 0,000 mm 0 W/m 3,8 C 5,1 C 3,2 km/h (1 Bft) 100 %
20.11.2014 02:00 5,0 C 5,0 C 5,1 C 91 % 1025,1 hPa 0,0 l/m 0,0 km/h (0 Bft) W-SW 247 0 min 0,000 mm 0 W/m 3,7 C 5,0 C 1,6 km/h (1 Bft) 100 %
20.11.2014 02:10 5,0 C 5,0 C 5,1 C 91 % 1025,0 hPa 0,0 l/m 0,0 km/h (0 Bft) N 0 0 min 0,000 mm 0 W/m 3,7 C 5,0 C 0,0 km/h (0 Bft) 100 %
20.11.2014 02:20 4,9 C 4,9 C 5,0 C 91 % 1025,1 hPa 0,0 l/m 0,0 km/h (0 Bft) W-SW 247 0 min 0,000 mm 0 W/m 3,6 C 4,9 C 3,2 km/h (1 Bft) 100 %
20.11.2014 02:30 4,8 C 4,8 C 4,9 C 91 % 1025,2 hPa 0,0 l/m 0,0 km/h (0 Bft) W-SW 247 0 min 0,000 mm 0 W/m 3,5 C 4,8 C 1,6 km/h (1 Bft) 100 %
20.11.2014 02:40 4,6 C 4,6 C 4,8 C 91 % 1025,1 hPa 0,0 l/m 0,0 km/h (0 Bft) W-SW 247 0 min 0,000 mm 0 W/m 3,3 C 4,6 C 3,2 km/h (1 Bft) 100 %
20.11.2014 02:50 4,4 C 4,4 C 4,6 C 91 % 1025,3 hPa 0,0 l/m 0,0 km/h (0 Bft) W 270 0 min 0,000 mm 0 W/m 3,1 C 4,4 C 3,2 km/h (1 Bft) 100 %
20.11.2014 03:00 4,3 C 4,3 C 4,4 C 91 % 1025,3 hPa 0,0 l/m 0,0 km/h (0 Bft) N 0 0 min 0,000 mm 0 W/m 3,0 C 4,3 C 0,0 km/h (0 Bft) 100 %
20.11.2014 03:10 4,2 C 4,2 C 4,3 C 91 % 1025,3 hPa 0,0 l/m 0,0 km/h (0 Bft) W 270 0 min 0,000 mm 0 W/m 2,9 C 4,2 C 1,6 km/h (1 Bft) 100 %
20.11.2014 03:20 4,2 C 4,2 C 4,3 C 91 % 1025,3 hPa 0,0 l/m 0,0 km/h (0 Bft) N 0 0 min 0,000 mm 0 W/m 2,9 C 4,2 C 0,0 km/h (0 Bft) 100 %
20.11.2014 03:30 4,1 C 4,1 C 4,2 C 91 % 1025,5 hPa 0,0 l/m 0,0 km/h (0 Bft) W 270 0 min 0,000 mm 0 W/m 2,8 C 4,1 C 3,2 km/h (1 Bft) 100 %
20.11.2014 03:40 4,1 C 4,1 C 4,1 C 91 % 1025,5 hPa 0,0 l/m 0,0 km/h (0 Bft) W 270 0 min 0,000 mm 0 W/m 2,8 C 4,1 C 3,2 km/h (1 Bft) 100 %
20.11.2014 03:50 4,1 C 4,0 C 4,1 C 91 % 1025,4 hPa 0,0 l/m 0,0 km/h (0 Bft) W 270 0 min 0,000 mm 0 W/m 2,8 C 4,1 C 1,6 km/h (1 Bft) 100 %
20.11.2014 04:00 3,9 C 3,9 C 4,1 C 91 % 1025,3 hPa 0,0 l/m 0,0 km/h (0 Bft) W 270 0 min 0,000 mm 0 W/m 2,6 C 3,9 C 1,6 km/h (1 Bft) 100 %
20.11.2014 04:10 3,9 C 3,9 C 3,9 C 91 % 1025,3 hPa 0,0 l/m 0,0 km/h (0 Bft) W 270 0 min 0,000 mm 0 W/m 2,6 C 3,9 C 3,2 km/h (1 Bft) 100 %
20.11.2014 04:20 3,8 C 3,8 C 3,9 C 91 % 1025,3 hPa 0,0 l/m 0,0 km/h (0 Bft) W 270 0 min 0,000 mm 0 W/m 2,5 C 3,8 C 1,6 km/h (1 Bft) 100 %
20.11.2014 04:30 3,8 C 3,8 C 3,8 C 91 % 1025,2 hPa 0,0 l/m 0,0 km/h (0 Bft) W 270 0 min 0,000 mm 0 W/m 2,5 C 3,8 C 3,2 km/h (1 Bft) 100 %
20.11.2014 04:40 3,6 C 3,6 C 3,8 C 91 % 1025,1 hPa 0,0 l/m 0,0 km/h (0 Bft) W 270 0 min 0,000 mm 0 W/m 2,3 C 3,6 C 3,2 km/h (1 Bft) 100 %
20.11.2014 04:50 3,4 C 3,4 C 3,6 C 91 % 1025,2 hPa 0,0 l/m 0,0 km/h (0 Bft) N 0 0 min 0,000 mm 0 W/m 2,1 C 3,4 C 0,0 km/h (0 Bft) 100 %
20.11.2014 05:00 3,1 C 3,1 C 3,4 C 92 % 1025,2 hPa 0,0 l/m 0,0 km/h (0 Bft) N 0 0 min 0,000 mm 0 W/m 1,9 C 3,1 C 0,0 km/h (0 Bft) 90 %
20.11.2014 05:10 3,0 C 3,0 C 3,1 C 91 % 1025,3 hPa 0,0 l/m 0,0 km/h (0 Bft) N 0 0 min 0,000 mm 0 W/m 1,7 C 3,0 C 0,0 km/h (0 Bft) 100 %
20.11.2014 05:20 2,9 C 2,9 C 3,0 C 91 % 1025,3 hPa 0,0 l/m 0,0 km/h (0 Bft) W 270 0 min 0,000 mm 0 W/m 1,6 C 2,9 C 1,6 km/h (1 Bft) 99 %
20.11.2014 05:30 2,8 C 2,8 C 2,9 C 91 % 1025,3 hPa 0,0 l/m 0,0 km/h (0 Bft) N 0 0 min 0,000 mm 0 W/m 1,5 C 2,8 C 0,0 km/h (0 Bft) 100 %
20.11.2014 05:40 2,7 C 2,7 C 2,8 C 91 % 1025,2 hPa 0,0 l/m 0,0 km/h (0 Bft) N 0 0 min 0,000 mm 0 W/m 1,4 C 2,7 C 0,0 km/h (0 Bft) 100 %
20.11.2014 05:50 2,6 C 2,6 C 2,7 C 91 % 1025,4 hPa 0,0 l/m 0,0 km/h (0 Bft) N 0 0 min 0,000 mm 0 W/m 1,3 C 2,6 C 0,0 km/h (0 Bft) 100 %
20.11.2014 06:00 2,6 C 2,6 C 2,6 C 91 % 1025,6 hPa 0,0 l/m 0,0 km/h (0 Bft) W 270 0 min 0,000 mm 0 W/m 1,3 C 2,6 C 3,2 km/h (1 Bft) 100 %
20.11.2014 06:10 2,6 C 2,6 C 2,6 C 91 % 1025,5 hPa 0,0 l/m 0,0 km/h (0 Bft) W 270 0 min 0,000 mm 0 W/m 1,3 C 2,6 C 3,2 km/h (1 Bft) 100 %
20.11.2014 06:20 2,6 C 2,6 C 2,6 C 91 % 1025,5 hPa 0,0 l/m 0,0 km/h (0 Bft) N 0 0 min 0,000 mm 0 W/m 1,3 C 2,6 C 0,0 km/h (0 Bft) 100 %
20.11.2014 06:30 2,6 C 2,5 C 2,6 C 91 % 1025,5 hPa 0,0 l/m 0,0 km/h (0 Bft) W 270 0 min 0,000 mm 0 W/m 1,3 C 2,6 C 1,6 km/h (1 Bft) 99 %
20.11.2014 06:40 2,5 C 2,5 C 2,6 C 91 % 1025,4 hPa 0,0 l/m 0,0 km/h (0 Bft) N 0 0 min 0,000 mm 0 W/m 1,2 C 2,5 C 0,0 km/h (0 Bft) 99 %
20.11.2014 06:50 2,3 C 2,3 C 2,5 C 91 % 1025,5 hPa 0,0 l/m 0,0 km/h (0 Bft) N 0 0 min 0,000 mm 0 W/m 1,0 C 2,3 C 0,0 km/h (0 Bft) 100 %
20.11.2014 07:00 2,3 C 2,3 C 2,4 C 91 % 1025,7 hPa 0,0 l/m 0,0 km/h (0 Bft) N 0 0 min 0,000 mm 0 W/m 1,0 C 2,3 C 0,0 km/h (0 Bft) 99 %
20.11.2014 07:10 2,5 C 2,3 C 2,5 C 91 % 1025,9 hPa 0,0 l/m 0,0 km/h (0 Bft) N 0 0 min 0,000 mm 0 W/m 1,2 C 2,5 C 0,0 km/h (0 Bft) 100 %
20.11.2014 07:20 2,6 C 2,4 C 2,6 C 91 % 1025,7 hPa 0,0 l/m 0,0 km/h (0 Bft) N 0 0 min 0,000 mm 0 W/m 1,3 C 2,6 C 0,0 km/h (0 Bft) 99 %
20.11.2014 07:30 2,8 C 2,6 C 2,8 C 92 % 1025,8 hPa 0,0 l/m 0,0 km/h (0 Bft) W 270 0 min 0,000 mm 0 W/m 1,6 C 2,8 C 3,2 km/h (1 Bft) 98 %
20.11.2014 07:40 3,2 C 2,8 C 3,2 C 92 % 1025,9 hPa 0,0 l/m 0,0 km/h (0 Bft) N 360 0 min 0,000 mm 0 W/m 2,0 C 3,2 C 4,8 km/h (1 Bft) 97 %
20.11.2014 07:50 3,6 C 3,2 C 3,6 C 92 % 1026,0 hPa 0,0 l/m 0,0 km/h (0 Bft) N-NO 22 0 min 0,000 mm 5 W/m 2,4 C 3,6 C 3,2 km/h (1 Bft) 98 %
20.11.2014 08:00 3,9 C 3,6 C 3,9 C 92 % 1026,0 hPa 0,0 l/m 0,0 km/h (0 Bft) NO 45 0 min 0,000 mm 9 W/m 2,7 C 3,9 C 4,8 km/h (1 Bft) 97 %
20.11.2014 08:10 4,1 C 3,9 C 4,1 C 92 % 1026,0 hPa 0,0 l/m 0,0 km/h (0 Bft) S 180 0 min 0,000 mm 12 W/m 2,9 C 4,1 C 3,2 km/h (1 Bft) 98 %
20.11.2014 08:20 4,2 C 4,1 C 4,2 C 92 % 1026,1 hPa 0,0 l/m 0,0 km/h (0 Bft) S 180 0 min 0,000 mm 14 W/m 3,0 C 4,2 C 3,2 km/h (1 Bft) 87 %
20.11.2014 08:30 4,4 C 4,2 C 4,4 C 92 % 1026,1 hPa 0,0 l/m 0,0 km/h (0 Bft) W-SW 247 0 min 0,000 mm 28 W/m 3,2 C 4,4 C 1,6 km/h (1 Bft) 97 %
20.11.2014 08:40 4,6 C 4,4 C 4,6 C 92 % 1026,2 hPa 0,0 l/m 0,0 km/h (0 Bft) W-NW 292 0 min 0,000 mm 39 W/m 3,4 C 4,6 C 3,2 km/h (1 Bft) 98 %
20.11.2014 08:50 4,8 C 4,6 C 4,8 C 92 % 1026,1 hPa 0,0 l/m 0,0 km/h (0 Bft) W-NW 292 0 min 0,000 mm 47 W/m 3,6 C 4,8 C 1,6 km/h (1 Bft) 97 %
20.11.2014 09:00 5,0 C 4,8 C 5,0 C 92 % 1026,1 hPa 0,0 l/m 0,0 km/h (0 Bft) NO 45 0 min 0,000 mm 69 W/m 3,8 C 5,0 C 6,4 km/h (2 Bft) 98 %
20.11.2014 09:10 5,1 C 5,0 C 5,1 C 92 % 1026,0 hPa 0,0 l/m 0,0 km/h (0 Bft) NO 45 0 min 0,000 mm 72 W/m 3,9 C 5,1 C 4,8 km/h (1 Bft) 97 %
20.11.2014 09:20 5,2 C 5,1 C 5,2 C 92 % 1025,9 hPa 0,0 l/m 1,6 km/h (1 Bft) O-NO 67 0 min 0,000 mm 98 W/m 4,0 C 5,2 C 8,0 km/h (2 Bft) 98 %
20.11.2014 09:30 5,3 C 5,2 C 5,3 C 92 % 1026,0 hPa 0,0 l/m 0,0 km/h (0 Bft) O 90 10 min 0,000 mm 179 W/m 4,1 C 5,3 C 8,0 km/h (2 Bft) 97 %
20.11.2014 09:40 5,7 C 5,3 C 5,7 C 92 % 1026,0 hPa 0,0 l/m 0,0 km/h (0 Bft) NO 45 10 min 0,000 mm 209 W/m 4,5 C 5,7 C 3,2 km/h (1 Bft) 96 %
20.11.2014 09:50 5,9 C 5,7 C 5,9 C 92 % 1026,1 hPa 0,0 l/m 0,0 km/h (0 Bft) N 360 10 min 0,000 mm 190 W/m 4,7 C 5,9 C 3,2 km/h (1 Bft) 98 %
20.11.2014 10:00 6,1 C 5,9 C 6,1 C 92 % 1026,1 hPa 0,0 l/m 0,0 km/h (0 Bft) N 360 10 min 0,051 mm 155 W/m 4,9 C 6,1 C 1,6 km/h (1 Bft) 97 %
20.11.2014 10:10 6,1 C 6,1 C 6,1 C 92 % 1026,0 hPa 0,0 l/m 0,0 km/h (0 Bft) N-NO 22 0 min 0,000 mm 98 W/m 4,9 C 6,1 C 3,2 km/h (1 Bft) 97 %
20.11.2014 10:20 6,0 C 6,0 C 6,1 C 92 % 1026,1 hPa 0,0 l/m 0,0 km/h (0 Bft) N-NO 22 10 min 0,000 mm 155 W/m 4,8 C 6,0 C 4,8 km/h (1 Bft) 97 %
20.11.2014 10:30 5,9 C 5,9 C 6,1 C 91 % 1026,2 hPa 0,0 l/m 0,0 km/h (0 Bft) O-SO 112 0 min 0,000 mm 146 W/m 4,5 C 5,9 C 6,4 km/h (2 Bft) 91 %
20.11.2014 10:40 6,1 C 5,9 C 6,1 C 92 % 1026,1 hPa 0,0 l/m 0,0 km/h (0 Bft) O-SO 112 0 min 0,000 mm 137 W/m 4,9 C 6,1 C 1,6 km/h (1 Bft) 95 %
20.11.2014 10:50 6,3 C 6,1 C 6,3 C 91 % 1026,3 hPa 0,0 l/m 0,0 km/h (0 Bft) O-SO 112 0 min 0,000 mm 130 W/m 4,9 C 6,3 C 1,6 km/h (1 Bft) 97 %
20.11.2014 11:00 6,4 C 6,3 C 6,4 C 92 % 1026,0 hPa 0,0 l/m 0,0 km/h (0 Bft) O-SO 112 10 min 0,051 mm 158 W/m 5,2 C 6,4 C 6,4 km/h (2 Bft) 98 %
20.11.2014 11:10 6,9 C 6,4 C 6,9 C 92 % 1026,0 hPa 0,0 l/m 0,0 km/h (0 Bft) O-SO 112 10 min 0,000 mm 410 W/m 5,7 C 6,9 C 4,8 km/h (1 Bft) 97 %
20.11.2014 11:20 7,4 C 6,9 C 7,4 C 92 % 1026,1 hPa 0,0 l/m 0,0 km/h (0 Bft) N 360 10 min 0,000 mm 390 W/m 6,2 C 7,4 C 4,8 km/h (1 Bft) 98 %
20.11.2014 11:30 7,2 C 7,2 C 7,4 C 91 % 1025,9 hPa 0,0 l/m 1,6 km/h (1 Bft) SO 135 10 min 0,000 mm 390 W/m 5,8 C 7,2 C 8,0 km/h (2 Bft) 97 %
20.11.2014 11:40 7,0 C 6,9 C 7,2 C 91 % 1026,0 hPa 0,0 l/m 1,6 km/h (1 Bft) O 90 10 min 0,000 mm 373 W/m 5,6 C 7,0 C 9,7 km/h (2 Bft) 97 %
20.11.2014 11:50 7,1 C 7,0 C 7,2 C 92 % 1025,9 hPa 0,0 l/m 3,2 km/h (1 Bft) O-SO 112 10 min 0,000 mm 302 W/m 5,9 C 7,1 C 9,7 km/h (2 Bft) 98 %
20.11.2014 12:00 7,1 C 7,1 C 7,1 C 92 % 1025,7 hPa 0,0 l/m 1,6 km/h (1 Bft) O-SO 112 10 min 0,102 mm 155 W/m 5,9 C 7,1 C 9,7 km/h (2 Bft) 98 %
20.11.2014 12:10 7,4 C 7,1 C 7,4 C 92 % 1025,8 hPa 0,0 l/m 1,6 km/h (1 Bft) SO 135 10 min 0,000 mm 241 W/m 6,2 C 7,4 C 9,7 km/h (2 Bft) 99 %
20.11.2014 12:20 7,6 C 7,4 C 7,6 C 92 % 1025,7 hPa 0,0 l/m 1,6 km/h (1 Bft) O-SO 112 10 min 0,000 mm 241 W/m 6,4 C 7,6 C 8,0 km/h (2 Bft) 97 %
20.11.2014 12:30 7,8 C 7,6 C 7,8 C 91 % 1025,5 hPa 0,0 l/m 1,6 km/h (1 Bft) O 90 10 min 0,000 mm 179 W/m 6,4 C 7,8 C 6,4 km/h (2 Bft) 98 %
20.11.2014 12:40 8,1 C 7,8 C 8,1 C 89 % 1025,4 hPa 0,0 l/m 1,6 km/h (1 Bft) O-SO 112 10 min 0,000 mm 318 W/m 6,4 C 8,1 C 6,4 km/h (2 Bft) 97 %
20.11.2014 12:50 8,2 C 8,1 C 8,2 C 88 % 1025,2 hPa 0,0 l/m 1,6 km/h (1 Bft) O 90 10 min 0,000 mm 246 W/m 6,3 C 8,2 C 4,8 km/h (1 Bft) 98 %
20.11.2014 13:00 8,4 C 8,2 C 8,4 C 88 % 1025,3 hPa 0,0 l/m 1,6 km/h (1 Bft) SO 135 10 min 0,076 mm 304 W/m 6,5 C 8,4 C 6,4 km/h (2 Bft) 97 %
20.11.2014 13:10 8,8 C 8,4 C 8,8 C 86 % 1025,3 hPa 0,0 l/m 0,0 km/h (0 Bft) NO 45 10 min 0,000 mm 357 W/m 6,6 C 8,8 C 3,2 km/h (1 Bft) 97 %
20.11.2014 13:20 9,2 C 8,8 C 9,2 C 86 % 1025,3 hPa 0,0 l/m 1,6 km/h (1 Bft) O 90 10 min 0,000 mm 441 W/m 7,0 C 9,2 C 4,8 km/h (1 Bft) 98 %
20.11.2014 13:30 9,2 C 9,2 C 9,3 C 83 % 1025,1 hPa 0,0 l/m 3,2 km/h (1 Bft) SO 135 10 min 0,000 mm 381 W/m 6,5 C 9,2 C 14,5 km/h (3 Bft) 97 %
20.11.2014 13:40 8,7 C 8,7 C 9,2 C 82 % 1025,3 hPa 0,0 l/m 6,4 km/h (2 Bft) O-SO 112 10 min 0,000 mm 165 W/m 5,8 C 8,7 C 16,1 km/h (3 Bft) 98 %
20.11.2014 13:50 8,6 C 8,6 C 8,7 C 84 % 1025,3 hPa 0,0 l/m 1,6 km/h (1 Bft) SO 135 0 min 0,000 mm 132 W/m 6,1 C 8,6 C 6,4 km/h (2 Bft) 97 %
20.11.2014 14:00 8,4 C 8,4 C 8,6 C 84 % 1025,0 hPa 0,0 l/m 1,6 km/h (1 Bft) O-SO 112 0 min 0,102 mm 98 W/m 5,9 C 8,4 C 8,0 km/h (2 Bft) 98 %
20.11.2014 14:10 8,2 C 8,2 C 8,4 C 85 % 1025,0 hPa 0,0 l/m 3,2 km/h (1 Bft) SO 135 0 min 0,000 mm 128 W/m 5,8 C 8,2 C 8,0 km/h (2 Bft) 98 %
20.11.2014 14:20 8,1 C 8,1 C 8,2 C 85 % 1025,2 hPa 0,0 l/m 1,6 km/h (1 Bft) SO 135 0 min 0,000 mm 60 W/m 5,7 C 8,1 C 8,0 km/h (2 Bft) 97 %
20.11.2014 14:30 8,0 C 8,0 C 8,1 C 86 % 1025,1 hPa 0,0 l/m 1,6 km/h (1 Bft) O-SO 112 0 min 0,000 mm 49 W/m 5,8 C 8,0 C 8,0 km/h (2 Bft) 98 %
20.11.2014 14:40 7,9 C 7,9 C 8,0 C 87 % 1025,2 hPa 0,0 l/m 1,6 km/h (1 Bft) SO 135 0 min 0,000 mm 70 W/m 5,9 C 7,9 C 8,0 km/h (2 Bft) 96 %
20.11.2014 14:50 7,9 C 7,9 C 8,0 C 87 % 1025,2 hPa 0,0 l/m 1,6 km/h (1 Bft) SO 135 0 min 0,000 mm 90 W/m 5,9 C 7,9 C 8,0 km/h (2 Bft) 98 %
20.11.2014 15:00 8,0 C 7,9 C 8,0 C 89 % 1025,1 hPa 0,0 l/m 0,0 km/h (0 Bft) S-SW 202 0 min 0,025 mm 67 W/m 6,3 C 8,0 C 4,8 km/h (1 Bft) 97 %
20.11.2014 15:10 7,8 C 7,8 C 8,0 C 89 % 1025,2 hPa 0,0 l/m 1,6 km/h (1 Bft) S-SW 202 0 min 0,000 mm 32 W/m 6,1 C 7,8 C 4,8 km/h (1 Bft) 97 %
20.11.2014 15:20 7,7 C 7,7 C 7,8 C 90 % 1025,1 hPa 0,0 l/m 0,0 km/h (0 Bft) S-SW 202 0 min 0,000 mm 18 W/m 6,2 C 7,7 C 4,8 km/h (1 Bft) 97 %
20.11.2014 15:30 7,6 C 7,6 C 7,7 C 90 % 1025,1 hPa 0,0 l/m 0,0 km/h (0 Bft) N 0 0 min 0,000 mm 14 W/m 6,1 C 7,6 C 0,0 km/h (0 Bft) 97 %
20.11.2014 15:40 7,6 C 7,6 C 7,6 C 90 % 1025,2 hPa 0,0 l/m 0,0 km/h (0 Bft) S 180 0 min 0,000 mm 14 W/m 6,1 C 7,6 C 3,2 km/h (1 Bft) 98 %
20.11.2014 15:50 7,6 C 7,6 C 7,6 C 90 % 1025,1 hPa 0,0 l/m 0,0 km/h (0 Bft) N 0 0 min 0,000 mm 14 W/m 6,1 C 7,6 C 0,0 km/h (0 Bft) 97 %
20.11.2014 16:00 7,6 C 7,6 C 7,6 C 90 % 1025,3 hPa 0,0 l/m 0,0 km/h (0 Bft) N 0 0 min 0,000 mm 14 W/m 6,1 C 7,6 C 0,0 km/h (0 Bft) 98 %
20.11.2014 16:10 7,5 C 7,5 C 7,6 C 89 % 1025,1 hPa 0,0 l/m 0,0 km/h (0 Bft) NO 45 0 min 0,000 mm 7 W/m 5,8 C 7,5 C 3,2 km/h (1 Bft) 97 %
20.11.2014 16:20 7,4 C 7,4 C 7,5 C 89 % 1025,1 hPa 0,0 l/m 0,0 km/h (0 Bft) NO 45 0 min 0,000 mm 7 W/m 5,7 C 7,4 C 3,2 km/h (1 Bft) 96 %
20.11.2014 16:30 7,3 C 7,3 C 7,4 C 89 % 1025,1 hPa 0,0 l/m 0,0 km/h (0 Bft) NO 45 0 min 0,000 mm 0 W/m 5,6 C 7,3 C 3,2 km/h (1 Bft) 98 %
20.11.2014 16:50 7,2 C 7,2 C 7,4 C 88 % 1025,1 hPa 0,0 l/m 0,0 km/h (0 Bft) N 355 0 min 0,000 mm 0 W/m 5,3 C 7,2 C 0,0 km/h (0 Bft) 100 %
20.11.2014 17:00 7,2 C 7,2 C 7,2 C 89 % 1025,0 hPa 0,0 l/m 0,1 km/h (0 Bft) N 355 0 min 0,000 mm 0 W/m 5,5 C 7,2 C 4,8 km/h (1 Bft) 99 %
20.11.2014 17:10 7,1 C 7,1 C 7,2 C 89 % 1025,0 hPa 0,0 l/m 0,3 km/h (0 Bft) O-NO 69 0 min 0,000 mm 0 W/m 5,4 C 7,1 C 4,8 km/h (1 Bft) 91 %
20.11.2014 17:20 6,9 C 6,9 C 7,1 C 89 % 1025,0 hPa 0,0 l/m 0,3 km/h (0 Bft) O-NO 61 0 min 0,000 mm 0 W/m 5,2 C 6,9 C 3,2 km/h (1 Bft) 99 %
20.11.2014 17:30 6,7 C 6,7 C 6,9 C 90 % 1025,0 hPa 0,0 l/m 0,5 km/h (0 Bft) O-SO 103 0 min 0,000 mm 0 W/m 5,2 C 6,7 C 4,8 km/h (1 Bft) 99 %
20.11.2014 17:40 6,6 C 6,6 C 6,7 C 90 % 1024,9 hPa 0,0 l/m 0,4 km/h (0 Bft) O 82 0 min 0,000 mm 0 W/m 5,1 C 6,6 C 8,0 km/h (2 Bft) 99 %
20.11.2014 17:50 6,6 C 6,6 C 6,6 C 91 % 1024,9 hPa 0,0 l/m 0,2 km/h (0 Bft) O 82 0 min 0,000 mm 0 W/m 5,2 C 6,6 C 3,2 km/h (1 Bft) 100 %
20.11.2014 18:00 6,5 C 6,5 C 6,6 C 91 % 1024,9 hPa 0,0 l/m 0,3 km/h (0 Bft) O 84 0 min 0,000 mm 0 W/m 5,1 C 6,5 C 3,2 km/h (1 Bft) 100 %
20.11.2014 18:10 6,4 C 6,4 C 6,5 C 91 % 1025,2 hPa 0,0 l/m 0,1 km/h (0 Bft) O 83 0 min 0,000 mm 0 W/m 5,0 C 6,4 C 1,6 km/h (1 Bft) 99 %
20.11.2014 18:20 6,3 C 6,3 C 6,4 C 91 % 1025,1 hPa 0,0 l/m 0,0 km/h (0 Bft) O 83 0 min 0,000 mm 0 W/m 4,9 C 6,3 C 1,6 km/h (1 Bft) 99 %
20.11.2014 18:30 6,2 C 6,2 C 6,3 C 91 % 1025,2 hPa 0,0 l/m 0,1 km/h (0 Bft) O 84 0 min 0,000 mm 0 W/m 4,8 C 6,2 C 1,6 km/h (1 Bft) 100 %
20.11.2014 18:40 6,0 C 6,0 C 6,2 C 91 % 1025,1 hPa 0,0 l/m 0,3 km/h (0 Bft) O 82 0 min 0,000 mm 0 W/m 4,6 C 6,0 C 3,2 km/h (1 Bft) 100 %
20.11.2014 18:50 5,9 C 5,9 C 6,0 C 91 % 1025,2 hPa 0,0 l/m 0,1 km/h (0 Bft) N 5 0 min 0,000 mm 0 W/m 4,5 C 5,9 C 4,8 km/h (1 Bft) 99 %
20.11.2014 19:00 5,8 C 5,8 C 5,9 C 91 % 1025,1 hPa 0,0 l/m 0,1 km/h (0 Bft) N 355 0 min 0,000 mm 0 W/m 4,4 C 5,8 C 1,6 km/h (1 Bft) 99 %
20.11.2014 19:10 5,7 C 5,7 C 5,8 C 91 % 1025,1 hPa 0,0 l/m 0,3 km/h (0 Bft) N-NO 29 0 min 0,000 mm 0 W/m 4,3 C 5,7 C 4,8 km/h (1 Bft) 99 %
20.11.2014 19:20 5,7 C 5,7 C 5,7 C 92 % 1025,1 hPa 0,0 l/m 0,3 km/h (0 Bft) N-NO 29 0 min 0,000 mm 0 W/m 4,5 C 5,7 C 3,2 km/h (1 Bft) 100 %
20.11.2014 19:30 5,7 C 5,7 C 5,7 C 92 % 1025,2 hPa 0,0 l/m 0,1 km/h (0 Bft) N-NO 30 0 min 0,000 mm 0 W/m 4,5 C 5,7 C 3,2 km/h (1 Bft) 100 %
20.11.2014 19:40 5,7 C 5,7 C 5,7 C 92 % 1025,3 hPa 0,0 l/m 0,4 km/h (0 Bft) NO 44 0 min 0,000 mm 0 W/m 4,5 C 5,7 C 6,4 km/h (2 Bft) 99 %
20.11.2014 19:50 5,6 C 5,6 C 5,7 C 91 % 1025,2 hPa 0,0 l/m 0,7 km/h (0 Bft) N-NO 15 0 min 0,000 mm 0 W/m 4,2 C 5,6 C 6,4 km/h (2 Bft) 100 %
20.11.2014 20:00 5,5 C 5,5 C 5,6 C 91 % 1025,3 hPa 0,0 l/m 0,0 km/h (0 Bft) N-NO 15 0 min 0,000 mm 0 W/m 4,2 C 5,5 C 1,6 km/h (1 Bft) 99 %
20.11.2014 20:10 5,4 C 5,4 C 5,5 C 91 % 1025,2 hPa 0,0 l/m 0,6 km/h (0 Bft) N 5 0 min 0,000 mm 0 W/m 4,1 C 5,4 C 6,4 km/h (2 Bft) 91 %
20.11.2014 20:20 5,4 C 5,4 C 5,4 C 91 % 1025,2 hPa 0,0 l/m 0,5 km/h (0 Bft) O-NO 63 0 min 0,000 mm 0 W/m 4,1 C 5,4 C 4,8 km/h (1 Bft) 99 %
20.11.2014 20:30 5,4 C 5,4 C 5,4 C 92 % 1025,3 hPa 0,0 l/m 0,8 km/h (0 Bft) O-SO 120 0 min 0,000 mm 0 W/m 4,2 C 5,4 C 6,4 km/h (2 Bft) 98 %
20.11.2014 20:40 5,4 C 5,4 C 5,4 C 92 % 1025,2 hPa 0,0 l/m 0,1 km/h (0 Bft) N-NO 19 0 min 0,000 mm 0 W/m 4,2 C 5,4 C 3,2 km/h (1 Bft) 100 %
20.11.2014 20:50 5,4 C 5,3 C 5,4 C 91 % 1025,4 hPa 0,0 l/m 0,4 km/h (0 Bft) N-NO 32 0 min 0,000 mm 0 W/m 4,1 C 5,4 C 6,4 km/h (2 Bft) 99 %
20.11.2014 21:00 5,3 C 5,3 C 5,4 C 91 % 1025,4 hPa 0,0 l/m 0,0 km/h (0 Bft) NO 40 0 min 0,000 mm 0 W/m 4,0 C 5,3 C 0,0 km/h (0 Bft) 100 %
20.11.2014 21:10 5,2 C 5,2 C 5,3 C 91 % 1025,4 hPa 0,0 l/m 0,0 km/h (0 Bft) NO 45 0 min 0,000 mm 0 W/m 3,9 C 5,2 C 4,8 km/h (1 Bft) 88 %
20.11.2014 21:20 5,2 C 5,2 C 5,2 C 91 % 1025,5 hPa 0,0 l/m 0,0 km/h (0 Bft) O 90 0 min 0,000 mm 0 W/m 3,9 C 5,2 C 1,6 km/h (1 Bft) 98 %
20.11.2014 21:30 5,2 C 5,2 C 5,2 C 92 % 1025,6 hPa 0,0 l/m 0,0 km/h (0 Bft) N-NO 22 0 min 0,000 mm 0 W/m 4,0 C 5,2 C 3,2 km/h (1 Bft) 97 %
20.11.2014 21:40 5,2 C 5,2 C 5,2 C 91 % 1025,6 hPa 0,0 l/m 0,0 km/h (0 Bft) O-NO 67 0 min 0,000 mm 0 W/m 3,9 C 5,2 C 4,8 km/h (1 Bft) 100 %
20.11.2014 21:50 5,2 C 5,2 C 5,2 C 92 % 1025,5 hPa 0,0 l/m 1,6 km/h (1 Bft) NO 45 0 min 0,000 mm 0 W/m 4,0 C 5,2 C 6,4 km/h (2 Bft) 97 %
20.11.2014 22:00 5,2 C 5,2 C 5,2 C 92 % 1025,6 hPa 0,0 l/m 0,0 km/h (0 Bft) NO 45 0 min 0,000 mm 0 W/m 4,0 C 5,2 C 3,2 km/h (1 Bft) 99 %
20.11.2014 22:10 5,2 C 5,2 C 5,2 C 92 % 1025,5 hPa 0,0 l/m 0,0 km/h (0 Bft) O-NO 67 0 min 0,000 mm 0 W/m 4,0 C 5,2 C 4,8 km/h (1 Bft) 99 %
20.11.2014 22:20 5,1 C 5,1 C 5,2 C 91 % 1025,5 hPa 0,0 l/m 0,0 km/h (0 Bft) NO 45 0 min 0,000 mm 0 W/m 3,8 C 5,1 C 4,8 km/h (1 Bft) 100 %
20.11.2014 22:30 5,0 C 5,0 C 5,1 C 92 % 1025,5 hPa 0,0 l/m 0,0 km/h (0 Bft) N 360 0 min 0,000 mm 0 W/m 3,8 C 5,0 C 4,8 km/h (1 Bft) 100 %
20.11.2014 22:40 4,9 C 4,9 C 5,0 C 92 % 1025,3 hPa 0,0 l/m 0,0 km/h (0 Bft) N-NO 22 0 min 0,000 mm 0 W/m 3,7 C 4,9 C 3,2 km/h (1 Bft) 100 %
20.11.2014 22:50 4,9 C 4,9 C 4,9 C 92 % 1025,3 hPa 0,0 l/m 0,0 km/h (0 Bft) NO 45 0 min 0,000 mm 0 W/m 3,7 C 4,9 C 4,8 km/h (1 Bft) 100 %
20.11.2014 23:00 4,8 C 4,8 C 4,9 C 92 % 1025,1 hPa 0,0 l/m 0,0 km/h (0 Bft) NO 45 0 min 0,000 mm 0 W/m 3,6 C 4,8 C 4,8 km/h (1 Bft) 100 %
20.11.2014 23:10 4,6 C 4,6 C 4,8 C 92 % 1025,1 hPa 0,0 l/m 0,0 km/h (0 Bft) O 90 0 min 0,000 mm 0 W/m 3,4 C 4,6 C 6,4 km/h (2 Bft) 99 %
20.11.2014 23:20 4,4 C 4,4 C 4,6 C 92 % 1024,9 hPa 0,0 l/m 0,0 km/h (0 Bft) N-NO 22 0 min 0,000 mm 0 W/m 3,2 C 4,4 C 4,8 km/h (1 Bft) 100 %
20.11.2014 23:30 4,3 C 4,3 C 4,4 C 92 % 1024,8 hPa 0,0 l/m 1,6 km/h (1 Bft) N-NO 22 0 min 0,000 mm 0 W/m 3,1 C 4,3 C 4,8 km/h (1 Bft) 100 %
20.11.2014 23:40 4,2 C 4,1 C 4,3 C 92 % 1024,7 hPa 0,0 l/m 0,0 km/h (0 Bft) O-NO 67 0 min 0,000 mm 0 W/m 3,0 C 4,2 C 4,8 km/h (1 Bft) 100 %
20.11.2014 23:50 4,1 C 4,1 C 4,2 C 92 % 1024,9 hPa 0,0 l/m 0,0 km/h (0 Bft) NO 45 0 min 0,000 mm 0 W/m 2,9 C 4,1 C 4,8 km/h (1 Bft) 100 %
_ Min-Zeit 06:50 06:50 07:00 13:40 23:40 - 00:00 - - - - - 06:50 06:50 00:00 08:20
Minimum _ 2,3 C 2,3 C 2,4 C 82 % 1024,7 hPa - 0,0 km/h (0 Bft) - - - - - 1,0 C 2,3 C 0,0 km/h (0 Bft) 87 %
_ Max-Zeit 13:30 13:30 13:30 05:00 10:50 00:00 13:40 - - 09:30 12:00 13:20 13:20 13:20 13:40 00:00
Maximum _ 9,3 C 9,2 C 9,3 C 92 % 1026,3 hPa 0,0 l/m 6,4 km/h
O-SO (2 Bft)
- - 10 min 0,102 mm 441 W/m 7,0 C 9,2 C 16,1 km/h
SO (3 Bft)
100 %
Durchschnitt _ 5,5 C 5,5 C 5,6 C 91 % 1025,4 hPa #0,0 l/m 0,4 km/h (0 Bft) SO - #3:40 h #0,407 mm 147 W/m 4,1 C 5,5 C 3,7 km/h (1 Bft) 98 %
PRIVATE WETTERSTATION BILLIGHEIM-ALLFELD - www.neckar-odenwald-wetter.de - Holger Sonntag